User: anonymous   Login
Location: Unspecified
(0.0000°N, 0.0000°E)
Time: 08:06:30
(UTC+00:00)
Language:

BEESAT 2 - Orbit

View from above orbital plane
View from above orbital plane
View from above satellite
View from above satellite

Ground track
Ground track

The orbit data is extracted from the following two-line orbital elements,

1 39136U 13015G   19345.79434403 +.00000751 +00000-0 +47266-4 0  9990
2 39136 064.8689 194.8877 0030663 283.5173 076.2537 15.17203860366497
Epoch (UTC): 11 December 2019 19:03:51
Eccentricity: 0.0030663
inclination: 64.8689°
perigee height: 493 km
apogee height: 535 km
right ascension of ascending node: 194.8877°
argument of perigee: 283.5173°
revolutions per day: 15.17203860
mean anomaly at epoch: 76.2537°
orbit number at epoch: 36649

The dashed part of the orbit path shows where the satellite is in the earth's shadow,  

DLR